Location: Melbourne
(37.8666°S, 145.1333°E)
Time: 07:59:54
(UTC+10:00)

Iridium 21 - Visible Passes

Search period start: 01 October 2016 00:00
Search period end: 11 October 2016 01:00
Orbit: 776 x 779 km, 86.4° (Epoch: 30 September)

Date Brightness Start Highest point End Pass type
(mag) Time Alt. Az. Time Alt. Az. Time Alt. Az.
01 Oct 7.3 21:24:52 10° S 21:27:01 25° S 21:27:01 25° S visible
02 Oct 7.1 21:51:32 10° SSE 21:53:53 25° SSE 21:53:53 25° SSE visible
02 Oct 8.3 23:33:12 10° SW 23:34:23 14° SW 23:34:23 14° SW visible
03 Oct 7.2 21:18:38 10° SSE 21:20:47 19° SE 21:20:47 19° SE visible
03 Oct 7.6 22:58:50 10° SSW 23:01:17 24° SW 23:01:17 24° SW visible
04 Oct 7.5 20:46:44 10° SE 20:47:42 12° ESE 20:47:42 12° ESE visible
04 Oct 6.8 22:24:58 10° S 22:28:12 37° SSW 22:28:12 37° SSW visible
05 Oct 6.2 21:51:26 10° S 21:55:08 43° SSE 21:55:08 43° SSE visible
05 Oct 8.3 23:34:22 10° SW 23:35:38 12° WSW 23:35:38 12° WSW visible
06 Oct 6.4 21:18:16 10° SSE 21:22:06 32° ESE 21:22:06 32° ESE visible
06 Oct 7.6 22:59:20 10° SSW 23:02:36 23° WSW 23:02:36 23° WSW visible
07 Oct 7.0 20:45:38 10° SSE 20:49:05 19° ESE 20:49:05 19° ESE visible
07 Oct 6.5 22:25:12 10° SSW 22:29:35 44° WSW 22:29:35 44° WSW visible
08 Oct 5.5 21:51:28 10° S 21:56:36 83° SSW 21:56:36 83° SSW visible
09 Oct 5.7 21:18:04 10° S 21:23:13 50° E 21:23:38 48° E visible
09 Oct 7.9 23:00:06 10° SW 23:03:26 17° W 23:04:09 17° W visible
10 Oct 6.5 20:45:04 10° SSE 20:49:31 27° E 20:50:42 24° ENE visible
10 Oct 7.0 22:25:34 10° SSW 22:30:11 32° W 22:31:13 29° WNW visible
